Tracking 35331 objects as of 16-Sep-2026
HD Live streaming from Space Station
objects crossing your sky now

JILIN-01 GAOFEN 3D 33


JILIN-01 GAOFEN 3D 33 is no longer on orbit


NORAD ID: 52450
Int'l Code: 2022-048H
Launch date: May 5, 2022
Source: People's Republic of China (PRC)
Launch site: Taiyaun Space Center, China (TSC)
Decay date: 2025-11-22
Your satellite tracking list
Your tracking list is empty




NASA's NSSDC Master Catalog

Two Line Element Set (TLE):
1 52450U 22048H   25326.93172090  .14644382  27091-5  18213-3 0  9995
2 52450  97.5503  77.5682 0009051 264.1895  95.8377 16.49430804198288
Source of the keplerian elements: AFSPC